Location: Ar Ranvel
(48.3000°N, 4.8833°W)
Time: 15:02:38
(UTC+00:00)

Cosmos 2056 Rocket - Pass Details

Date: 16 June 2021
Orbit: 741 x 801 km, 74.0° (Epoch: 31 July)

Event Time Altitude Azimuth Distance (km) Brightness Sun altitude
Rises 20:59:22 0° 209° (SSW) 3,197 6.5 -5.4°
Reaches altitude 10° 21:01:43 10° 212° (SSW) 2,284 5.8 -5.7°
Maximum altitude 21:06:53 67° 295° (WNW) 833 4.0 -6.3°
Drops below altitude 10° 21:12:10 10° 19° (NNE) 2,340 6.4 -6.9°
Sets 21:14:36 0° 22° (NNE) 3,281 7.1 -7.1°
